CAPE
0 0 0 0 0 0 0 0 0 0 0 0 0 0 0 0 0 0 0 0 0 0 0 0 0 0 0 0 0 0 0 0 0 0 2 0 0 0 0 0 0 0 0 0 0
0 0 0 0 0 0 0 0 0 0 0 0 0 0 0 0 0 0 0 0 0 0 0 0 0 0 0 0 0 0 0 0 0 5 6 0 0 0 0 0 0 0 0 0 0
0 0 0 0 0 0 0 0 0 0 0 0 0 0 0 0 0 0 0 0 0 0 0 0 0 0 0 0 0 0 0 0 0 1 3 0 0 0 1 0 0 0 0 0 0
0 0 0 0 0 0 0 0 0 0 0 0 0 0 0 0 0 0 0 0 0 0 0 0 0 0 0 0 0 0 0 0 0 0 0 0 0 0 0 0 0 0 0 0 0
0 0 0 0 0 0 0 0 0 0 0 0 0 0 0 0 0 0 0 0 0 0 0 0 0 0 0 0 0 0 0 0 0 0 0 0 0 0 0 0 0 0 0 0 0
0 0 0 0 0 0 0 0 0 0 0 0 0 0 0 0 0 0 0 0 0 0 0 0 0 0 0 0 0 0 0 0 0 0 0 0 0 0 0 0 0 0 0 0 0
0 0 0 0 0 0 0 0 0 0 0 0 0 0 0 0 0 0 0 0 0 0 0 0 0 0 0 0 0 0 0 0 0 0 0 0 0 0 0 0 0 0 0 0 0
0 0 0 0 0 0 0 0 0 0 0 0 0 0 0 0 0 0 0 0 0 0 0 0 0 0 0 0 0 0 0 0 0 0 0 9 0 0 0 0 0 0 2 0 0
0 0 0 0 0 0 0 0 0 0 0 0 0 0 0 0 0 0 0 0 0 0 0 0 0 0 0 0 0 0 0 0 0 0 0 16 0 0 0 0 0 10 1 0 0
0 0 0 0 0 0 0 0 0 0 0 0 0 0 0 0 0 0 0 0 0 0 0 0 0 0 0 0 0 0 0 0 0 0 0 0 0 17 5 6 4 1 1 0 0
0 0 0 0 0 0 0 0 0 0 0 0 0 0 0 0 0 0 0 0 0 0 0 0 0 0 0 0 0 3 0 0 0 0 0 3 5 4 7 1 2 5 4 3 0
0 0 0 0 0 0 0 0 0 0 0 0 0 0 0 0 0 0 0 0 0 0 0 0 0 0 0 0 0 0 0 0 0 0 0 0 5 5 4 8 7 3 3 2 2
0 0 0 0 0 0 0 0 0 0 0 0 0 0 0 0 0 0 0 0 0 0 0 0 0 0 0 0 0 0 0 0 1 0 0 0 1 0 2 1 1 0 0 1 6
0 0 0 0 0 0 0 0 0 0 0 0 0 0 0 0 0 0 0 0 0 0 0 0 0 0 0 0 0 0 0 0 0 0 0 0 0 0 1 0 0 2 2 2 5
0 0 0 0 0 0 0 0 0 0 0 0 0 0 0 0 0 0 0 0 0 0 0 0 0 0 0 0 0 0 0 0 0 0 0 0 0 0 0 0 0 0 1 1 3
0 0 0 0 0 0 0 0 0 0 0 0 0 0 0 0 0 0 0 0 0 0 0 0 0 0 0 0 0 0 0 0 0 0 0 0 0 0 0 0 0 0 0 0 0
0 0 0 0 0 0 0 0 0 0 0 0 0 0 0 0 0 0 0 0 0 0 0 0 0 0 0 0 0 0 0 0 0 0 0 0 0 0 0 0 0 0 0 0 0
0 0 0 0 0 0 0 0 0 0 0 0 0 0 0 0 0 0 0 0 0 0 0 0 0 0 0 0 0 0 0 0 0 0 0 0 0 0 0 0 0 0 0 0 0
0 0 0 0 0 0 0 0 0 0 0 0 0 0 0 0 0 0 0 0 0 0 0 0 0 0 0 0 0 0 0 0 0 0 0 0 0 0 0 0 0 0 0 0 0
0 0 0 0 0 0 0 0 0 0 0 0 0 0 0 0 0 0 0 0 0 0 0 0 0 0 0 0 0 0 0 0 0 0 0 0 0 0 0 0 0 0 0 0 0
0 0 0 0 0 0 0 0 0 0 0 0 0 0 0 0 0 0 0 0 0 0 0 0 0 0 0 0 0 0 0 0 0 0 0 0 0 0 0 0 0 0 0 0 0
0 0 0 0 0 0 0 0 0 0 0 0 0 0 0 0 0 0 0 0 0 0 0 0 0 0 0 0 0 0 0 0 0 0 0 0 0 0 0 0 0 0 0 0 0
0 0 0 0 0 0 0 0 0 0 0 0 0 0 0 0 0 0 0 0 0 0 0 0 0 0 0 0 0 0 0 0 0 0 0 0 0 0 0 0 0 0 0 0 0
0 0 0 0 0 0 0 0 0 0 0 0 0 0 0 0 0 0 0 0 0 0 0 0 0 0 0 0 0 0 0 0 0 0 0 0 0 0 0 0 0 0 0 0 0
0 0 0 0 0 0 0 0 0 0 0 0 0 0 0 0 0 0 0 0 0 0 0 0 0 0 0 0 0 0 0 0 0 0 0 0 0 0 0 0 0 0 0 0 0
0 0 0 0 0 0 0 0 0 0 0 0 0 0 0 0 0 0 0 0 0 0 0 0 0 0 0 0 0 0 0 0 0 0 0 0 0 0 0 0 0 0 0 0 0
0 0 0 0 0 0 0 0 0 0 0 0 0 0 0 0 0 0 0 0 0 0 0 0 0 0 0 0 0 0 0 0 0 0 0 0 0 0 0 0 0 0 0 0 0
CIN
0 0 0 0 0 0 0 0 0 0 0 0 0 0 0 0 0 0 0 0 0 0 0 0 0 0 0 0 0 0 0 0 0 0 0 0 0 0 0 0 0 0 0 0 0
0 0 0 0 0 0 0 0 0 0 0 0 0 0 0 0 0 0 0 0 0 0 0 0 0 0 0 0 0 0 0 0 0 0 0 0 0 0 0 0 0 0 0 0 0
0 0 0 0 0 0 0 0 0 0 0 0 0 0 0 0 0 0 0 0 0 0 0 0 0 0 0 0 0 0 0 0 0 0 0 0 0 0 0 0 0 0 0 0 0
0 0 0 0 0 0 0 0 0 0 0 0 0 0 0 0 0 0 0 0 0 0 0 0 0 0 0 0 0 0 0 0 0 0 0 0 0 0 0 0 0 0 0 0 0
0 0 0 0 0 0 0 0 0 0 0 0 0 0 0 0 0 0 0 0 0 0 0 0 0 0 0 0 0 0 0 0 0 0 0 0 0 0 0 0 0 0 0 0 0
0 0 0 0 0 0 0 0 0 0 0 0 0 0 0 0 0 0 0 0 0 0 0 0 0 0 0 0 0 0 0 0 0 0 0 0 0 0 0 0 0 0 0 0 0
0 0 0 0 0 0 0 0 0 0 0 0 0 0 0 0 0 0 0 0 0 0 0 0 0 0 0 0 0 0 0 0 0 0 0 0 0 0 0 0 0 0 0 0 0
0 0 0 0 0 0 0 0 0 0 0 0 0 0 0 0 0 0 0 0 0 0 0 0 0 0 0 0 0 0 0 0 0 0 0 -15 0 0 0 0 0 0 -20 0 0
0 0 0 0 0 0 0 0 0 0 0 0 0 0 0 0 0 0 0 0 0 0 0 0 0 0 0 0 0 0 0 0 0 0 0 -5 0 -1 0 0 0 -9 -5 0 0
0 0 0 0 0 0 0 0 0 0 0 0 0 0 0 0 0 0 0 0 0 0 0 0 0 0 0 0 0 0 0 0 0 0 0 0 0 -27 0 -3 -1 0 0 0 0
0 0 0 0 0 0 0 0 0 0 0 0 0 0 0 0 0 0 0 0 0 0 0 0 0 0 0 0 0 0 -2 0 0 0 0 -11 0 0 0 0 0 0 0 0 0
0 0 0 0 0 0 0 0 0 0 0 0 0 0 0 0 0 0 0 0 0 0 0 0 0 0 0 0 0 0 0 0 0 0 0 0 0 0 0 0 0 0 0 0 0
0 0 0 0 0 0 0 0 0 0 0 0 0 0 0 0 0 0 0 0 0 0 0 0 0 0 0 0 0 0 0 0 0 0 0 0 0 0 0 0 0 0 0 0 0
0 0 0 0 0 0 0 0 0 0 0 0 0 0 0 0 0 0 0 0 0 0 0 0 0 0 0 0 0 0 0 0 0 0 0 0 0 0 0 0 0 0 0 0 0
0 0 0 0 0 0 0 0 0 0 0 0 0 0 0 0 0 0 0 0 0 0 0 0 0 0 0 0 0 0 0 0 0 0 0 0 0 0 0 0 0 0 0 0 0
0 0 0 0 0 0 0 0 0 0 0 0 0 0 0 0 0 0 0 0 0 0 0 0 0 0 0 0 0 0 0 0 0 0 0 0 0 0 0 0 0 0 0 0 0
0 0 0 0 0 0 0 0 0 0 0 0 0 0 0 0 0 0 0 0 0 0 0 0 0 0 0 0 0 0 0 0 0 0 0 0 0 0 0 0 0 0 0 0 0
0 0 0 0 0 0 0 0 0 0 0 0 0 0 0 0 0 0 0 0 0 0 0 0 0 0 0 0 0 0 0 0 0 0 0 0 0 0 0 0 0 0 0 0 0
0 0 0 0 0 0 0 0 0 0 0 0 0 0 0 0 0 0 0 0 0 0 0 0 0 0 0 0 0 0 0 0 0 0 0 0 0 0 0 0 0 0 0 0 0
0 0 0 0 0 0 0 0 0 0 0 0 0 0 0 0 0 0 0 0 0 0 0 0 0 0 0 0 0 0 0 0 0 0 0 0 0 0 0 0 0 0 0 0 0
0 0 0 0 0 0 0 0 0 0 0 0 0 0 0 0 0 0 0 0 0 0 0 0 0 0 0 0 0 0 0 0 0 0 0 0 0 0 0 0 0 0 0 0 0
0 0 0 0 0 0 0 0 0 0 0 0 0 0 0 0 0 0 0 0 0 0 0 0 0 0 0 0 0 0 0 0 0 0 0 0 0 0 0 0 0 0 0 0 0
0 0 0 0 0 0 0 0 0 0 0 0 0 0 0 0 0 0 0 0 0 0 0 0 0 0 0 0 0 0 0 0 0 0 0 0 0 0 0 0 0 0 0 0 0
0 0 0 0 0 0 0 0 0 0 0 0 0 0 0 0 0 0 0 0 0 0 0 0 0 0 0 0 0 0 0 0 0 0 0 0 0 0 0 0 0 0 0 0 0
0 0 0 0 0 0 0 0 0 0 0 0 0 0 0 0 0 0 0 0 0 0 0 0 0 0 0 0 0 0 0 0 0 0 0 0 0 0 0 0 0 0 0 0 0
0 0 0 0 0 0 0 0 0 0 0 0 0 0 0 0 0 0 0 0 0 0 0 0 0 0 0 0 0 0 0 0 0 0 0 0 0 0 0 0 0 0 0 0 0
0 0 0 0 0 0 0 0 0 0 0 0 0 0 0 0 0 0 0 0 0 0 0 0 0 0 0 0 0 0 0 0 0 0 0 0 0 0 0 0 0 0 0 0 0
Wind_Speed
9 9 9 10 11 12 13 14 15 16 19 19 20 11 7 8 13 20 16 14 18 20 10 5 9 8 4 4 4 2 0 3 6 12 7 12 12 9 16 6 10 6 7 11 23
8 8 8 8 9 10 13 13 14 15 17 20 22 21 11 8 5 11 15 22 19 16 8 9 9 6 4 4 4 3 0 1 5 2 3 10 7 13 12 18 8 11 22 23 23
7 7 6 6 7 7 8 11 13 13 13 15 18 18 21 2 8 7 24 20 16 9 2 1 4 3 5 3 4 2 3 5 4 2 4 7 11 2 7 8 2 15 24 22 21
7 4 4 3 3 4 6 7 9 12 13 13 12 10 12 8 5 6 22 17 11 5 5 6 7 6 5 4 3 2 1 1 5 5 5 8 7 7 12 10 16 17 16 18 17
8 5 3 3 3 2 3 4 6 6 9 9 10 10 6 7 2 6 17 10 3 3 4 4 6 2 4 5 6 1 2 5 7 11 8 9 12 12 14 14 17 14 18 18 13
9 6 3 3 4 3 3 5 6 6 7 7 6 5 6 15 5 8 8 6 5 4 4 4 3 1 2 3 2 5 6 9 9 11 7 11 15 9 8 10 13 14 16 16 10
9 8 4 3 3 4 4 4 6 5 5 7 3 3 6 5 3 7 9 4 3 3 3 2 2 3 2 4 2 5 7 9 2 3 5 4 9 11 15 16 17 15 11 8 10
8 8 5 3 4 6 6 2 3 4 2 5 7 4 3 1 2 8 6 5 7 5 3 2 3 4 3 6 5 5 2 6 6 5 5 3 10 13 12 13 13 15 6 6 10
9 8 6 5 6 8 3 1 0 1 5 5 4 1 2 2 9 7 5 4 4 3 5 4 4 3 5 4 5 8 4 8 10 10 6 4 11 8 16 9 9 7 4 5 9
9 8 7 6 9 5 5 4 6 3 4 2 2 3 5 6 4 5 6 4 4 2 3 8 5 4 7 7 5 6 5 6 11 8 9 12 13 6 15 15 10 10 9 8 10
9 8 7 5 8 7 5 4 6 4 10 3 2 2 4 8 2 8 5 5 5 7 5 3 10 7 8 1 5 6 5 8 9 8 7 10 7 11 11 14 14 13 12 11 12
8 7 6 2 8 7 5 3 2 2 5 2 1 3 1 2 7 9 7 6 5 4 7 6 4 4 6 4 7 1 2 5 11 2 7 7 3 8 14 13 13 16 15 16 15
7 6 5 3 5 6 3 5 0 1 5 1 2 3 4 4 3 8 7 2 5 5 5 4 5 5 5 4 7 2 2 4 9 14 3 6 1 7 9 12 15 17 14 16 15
5 6 4 7 4 1 2 2 1 1 6 6 3 5 3 2 3 3 4 2 5 4 3 3 4 6 4 2 3 5 6 7 13 8 3 6 4 6 10 10 17 16 17 15 17
3 5 8 4 6 2 2 3 1 4 5 5 5 2 4 7 6 6 4 7 3 4 5 5 5 5 3 4 4 9 9 12 7 3 1 8 1 5 6 11 19 17 15 15 15
1 2 5 4 3 2 4 3 3 5 3 3 3 7 5 5 5 7 8 7 2 1 1 5 3 2 6 7 2 8 4 1 1 1 4 4 3 5 5 6 11 13 14 14 14
2 5 3 2 1 4 3 3 5 7 3 7 5 7 2 6 6 8 6 9 6 8 10 9 5 4 2 5 5 9 6 4 6 6 2 5 2 5 5 4 4 12 12 13 14
5 5 5 2 3 4 3 4 10 0 2 2 3 4 4 7 3 8 3 6 5 4 4 5 9 5 7 5 5 4 4 5 3 3 5 6 4 5 4 4 6 7 8 10 12
6 2 3 3 3 3 4 9 6 3 3 6 4 4 4 2 1 6 3 1 4 2 4 4 7 5 2 2 4 5 6 3 4 0 1 5 5 7 3 3 6 10 12 10 12
2 2 2 2 3 3 7 5 2 2 1 1 3 2 4 6 7 6 4 2 2 1 3 3 6 3 4 2 3 5 3 4 4 5 5 5 5 4 8 8 6 7 10 11 11
4 3 3 3 2 7 6 2 1 1 1 3 1 3 2 4 1 4 5 2 1 2 4 5 3 7 1 3 4 5 5 6 6 3 4 3 5 7 6 6 9 10 7 8 10
3 4 2 2 7 3 3 1 2 1 1 1 1 2 2 1 2 2 4 5 4 2 1 4 4 6 7 4 3 4 5 4 6 6 2 2 8 5 8 6 5 12 11 7 6
3 1 2 2 5 2 1 2 1 2 3 2 2 3 2 3 2 3 3 3 1 2 4 5 1 5 6 2 1 1 1 4 4 3 4 4 8 1 5 7 7 8 9 9 9
4 3 6 7 2 4 1 1 1 1 2 3 3 2 1 2 4 4 4 2 1 1 3 3 2 6 7 8 2 2 4 3 5 3 4 8 8 9 7 8 7 7 7 7 7
5 0 1 3 4 2 2 3 2 2 1 2 2 5 6 1 3 5 4 4 1 4 3 4 4 4 8 16 4 8 7 7 7 6 6 5 8 11 9 8 6 5 6 8 7
3 3 3 1 0 2 1 3 2 3 4 3 3 2 6 6 9 6 4 3 6 4 3 2 3 3 7 2 6 8 10 10 6 4 10 2 12 11 5 4 6 8 7 7 7
1 2 4 2 1 2 3 4 4 3 3 4 6 4 2 11 5 4 4 2 3 5 1 1 1 4 8 2 6 5 7 8 5 5 7 6 10 1 5 7 6 8 7 8 7
Wind_Direction
58 65 66 57 63 68 64 56 53 53 46 41 40 40 47 35 30 33 32 345 347 352 13 344 9 351 28 56 7 350 105 286 278 268 311 12 352 340 327 276 322 315 52 353 337
53 64 71 68 68 71 60 56 54 48 40 36 31 43 39 18 66 48 340 344 352 5 13 12 0 5 52 14 17 67 192 273 12 340 345 332 340 327 340 337 314 333 332 340 336
48 53 60 71 69 64 62 64 58 51 42 33 30 32 13 10 62 326 342 345 353 20 18 21 3 41 60 18 2 3 195 356 23 328 300 313 308 293 315 306 119 331 313 319 325
39 48 57 66 65 62 53 50 56 52 37 27 19 6 3 35 59 320 338 341 354 10 30 8 13 24 29 30 343 34 276 360 292 322 299 280 293 277 249 254 292 308 295 309 311
34 28 30 44 17 1 3 4 9 19 20 11 8 21 37 37 68 316 340 345 37 41 48 30 33 41 17 339 339 105 280 311 283 290 272 258 257 256 257 265 279 287 300 297 311
28 29 14 342 353 349 337 322 324 346 346 357 343 64 69 57 308 332 339 11 19 43 36 42 36 56 352 313 335 306 289 276 274 261 260 267 266 245 272 260 273 286 289 291 345
18 26 30 2 355 348 345 302 299 327 330 345 310 90 51 63 357 343 11 335 340 41 52 27 57 56 339 315 301 300 316 321 280 285 256 284 279 251 242 245 260 265 273 313 15
8 13 19 3 346 336 333 338 294 321 356 62 85 65 88 206 169 22 359 357 19 33 80 47 95 100 30 302 19 360 21 351 311 329 289 160 279 270 294 261 248 257 72 358 6
1 2 3 0 340 333 331 77 256 275 96 123 52 71 24 18 18 338 359 330 310 8 25 65 61 78 3 25 20 12 317 327 314 331 345 340 296 328 333 296 230 98 53 27 1
355 356 357 7 355 13 76 118 59 81 20 57 74 40 20 321 314 336 329 352 37 2 27 32 42 38 20 30 2 312 338 318 292 311 338 305 283 350 6 37 64 75 55 17 18
347 351 357 30 35 45 48 45 23 354 42 71 120 95 343 305 331 2 358 355 11 55 27 4 40 14 340 256 226 277 251 256 282 296 338 306 22 18 9 38 32 32 24 14 29
341 345 349 13 47 65 72 107 161 169 102 45 333 314 49 272 9 350 13 59 37 42 342 25 27 303 311 339 344 20 334 295 289 256 329 295 78 28 35 31 31 25 11 14 350
338 343 345 146 104 50 82 152 45 263 96 32 25 30 329 17 81 317 23 45 49 42 20 84 263 318 10 345 360 303 178 309 318 321 333 290 194 28 348 20 16 27 17 14 348
345 1 11 134 64 178 77 178 81 338 77 346 347 355 352 359 62 356 350 79 41 31 349 232 293 348 33 308 28 307 186 310 304 328 311 3 319 29 339 354 15 4 5 3 351
346 55 84 86 142 90 153 137 98 57 44 325 331 318 345 73 307 8 354 31 111 325 60 270 330 346 348 316 122 243 318 289 271 244 9 340 162 327 8 350 348 1 352 357 349
302 116 109 45 58 106 126 105 64 54 291 13 326 353 10 34 17 315 19 26 106 21 341 248 219 182 227 313 162 300 355 82 291 59 46 286 103 328 4 321 320 335 351 348 346
159 111 76 99 147 153 122 59 45 88 345 335 323 9 4 334 356 22 31 14 43 15 10 334 290 303 341 327 14 13 25 354 5 15 250 342 55 248 270 266 289 319 322 340 348
148 95 53 43 133 134 66 61 64 217 353 324 321 311 28 359 33 354 55 28 41 63 67 40 340 14 345 131 222 3 100 126 242 353 298 348 351 289 221 277 280 303 305 344 360
119 16 49 341 149 68 85 51 187 252 257 336 308 22 338 24 334 19 56 342 225 160 108 25 280 305 237 154 133 303 39 194 107 359 343 305 295 305 316 295 329 337 345 338 351
100 67 17 333 142 70 68 117 201 243 242 291 34 33 320 327 6 35 350 275 36 164 175 206 318 220 280 97 9 111 169 31 19 31 348 317 287 264 331 316 315 331 329 324 332
61 57 301 139 82 48 85 146 186 99 32 37 222 289 277 312 69 323 280 259 203 96 97 133 108 283 67 22 196 343 4 39 107 97 142 306 278 216 231 250 293 302 298 295 305
94 45 311 143 47 47 77 121 167 161 57 60 111 218 205 256 284 268 266 220 206 173 241 196 154 280 239 251 143 122 175 133 107 283 68 152 273 191 237 242 242 284 292 278 261
74 300 303 126 80 27 184 134 182 164 204 175 225 203 163 212 341 197 260 243 158 188 173 192 276 327 349 18 12 155 212 116 100 82 211 124 269 220 255 270 263 256 293 307 318
81 33 350 46 52 108 110 359 295 199 174 176 192 135 148 250 189 283 271 209 169 324 89 139 156 187 206 229 147 299 200 204 133 116 183 228 283 297 290 284 302 287 270 285 295
25 94 173 354 9 96 129 188 307 311 118 184 230 217 166 309 322 235 244 309 139 343 57 111 238 201 250 264 234 244 222 185 176 204 175 252 223 274 273 266 261 272 286 300 295
90 125 6 140 284 223 331 237 234 288 163 244 182 137 163 195 199 244 145 198 226 342 70 348 259 350 287 214 197 257 239 208 206 207 270 186 276 237 257 285 265 251 261 262 275
18 7 110 291 78 77 231 215 237 131 241 185 185 134 201 239 195 212 211 158 180 136 124 58 65 35 269 346 296 310 218 181 195 214 165 187 228 262 273 254 250 262 225 250 256